Regional Weather Roundup
Issued by NWS Bismarck, ND

Home | Current Version | Previous Version | Text Only | Print | Product List | Glossary On
Versions: 1 2 3 4 5 6 7 8 9 10 11 12 13 14 15 16 17 18 19 20 21 22 23 24 25 26 27 28 29 30 31 32 33 34 35 36 37 38 39 40 41 42 43 44 45 46 47 48 49 50
000
ASUS43 KBIS 191210
RWRBIS

NWR BROADCAST TEXT
NATIONAL WEATHER SERVICE BISMARCK ND
700 AM CDT SAT APR 19 2014

NOTE: "FAIR" INDICATES FEW OR NO CLOUDS BELOW 12,000 FEET WITH NO
SIGNIFICANT WEATHER AND/OR OBSTRUCTIONS TO VISIBILITY.


CITY           SKY/WX    TMP DP  RH WIND       PRES   REMARKS
WILLISTON      MOCLDY    37  32  82 W14G20    29.75R
MINOT          CLEAR     38  32  79 SW9       29.72R
MINOT AFB      CLEAR     37  35  94 W14G23    29.71R
BISMARCK       PTCLDY    39  33  79 SW8       29.83R
DICKINSON      CLEAR     38  24  57 W17       29.81R
GARRISON         N/A     34  31  88 W9        29.76R
HETTINGER ARPT CLEAR     32  25  75 VRB3      29.90R
JAMESTOWN      PTCLDY    41  37  86 W9        29.78R
CARRINGTON     FAIR      36  36 100 SW7       29.77R FOG
CROSBY         CLOUDY    37  37 100 W22G28    29.69R
HARVEY         FAIR      32  32 100 SW8       29.74S FOG
HAZEN          FAIR      34  30  86 W7        29.81R
LINTON         FAIR      36  36 100 NW9       29.84R
MANDAN         FAIR      37  32  81 SW10      29.83R
OAKES          FAIR      41  39  93 W8        29.81R
RUGBY          FAIR      32  32 100 SW9       29.71R FOG
STANLEY        CLOUDY    36  36 100 SW16G24   29.72S
TIOGA          CLOUDY    37  37 100 SW18G24   29.74R
WATFORD CITY   PTSUNNY   36  30  80 SW13      29.77R
$$

CITY           SKY/WX    TMP DP  RH WIND       PRES   REMARKS
GRAND FORKS    MOCLDY    44  37  76 S16       29.73R
GRAND FORKS AF PTCLDY    42  37  82 SW7       29.73R
DEVILS LAKE    PTCLDY    36  30  80 SW10      29.72R
FARGO          MOCLDY    49  38  65 S20       29.78R
CANDO          FAIR      32  30  93 SW9       29.71R FOG
CAVALIER       FAIR      36  32  87 CALM      29.69S
GRAFTON        FAIR      41  36  81 S12       29.71R
GWINNER        SUNNY     48  39  71 N5        29.79S
LANGDON        FAIR      36  32  87 SW14      29.68R
ROLLA          FAIR      32  32 100 SW10      29.68R
WALHALLA         N/A     36  36 100 SE5       29.68F
$$

CITY           SKY/WX    TMP DP  RH WIND       PRES   REMARKS
ABERDEEN       MOCLDY    45  38  76 W6        29.86R
MOBRIDGE       MOCLDY    41  33  73 NW6       29.86R
BUFFALO          N/A     32  24  72 W9        29.87R
RAPID CITY     MOCLDY    42  19  39 NW12      29.95R
GLASGOW        CLOUDY    38  33  82 W21       29.85R
SIDNEY         CLEAR     39  32  75 W18G30    29.80S
WOLF POINT     MOCLDY    40  33  76 W17       29.83R
GLENDIVE       CLEAR     34  23  64 W10       29.87R
MILES CITY     CLEAR     37  23  56 W9        29.92R
BAKER          CLEAR     34  25  69 W13       29.89R
$$

CITY           SKY/WX    TMP DP  RH WIND       PRES   REMARKS
BILLINGS       PTCLDY    39  13  34 N5        29.96R
GREAT FALLS    CLEAR     30  17  58 S5        29.92S
REGINA         CLOUDY    34  32  93 NW20G28   29.66R
ESTEVAN        CLOUDY    36  34  93 W13       29.67R
$$




USA.gov is the U.S. government's official web portal to all federal, state and local government web resources and services.